Simultaneous Nadir Overpasses (SNOs) Predictions

Prediction of SNOs between LANDSAT-8 and METOP-B Satellite Orbit:

Table of predicted SNOs for the next 14.0 days since TLE Epoch: 4/13/2024
Index Date (LANDSAT-8) Time (LANDSAT-8) Lat,Lon (LANDSAT-8) SZA (LANDSAT-8 ) Date (METOP-B) Time (METOP-B) Lat,Lon (METOP-B) SZA (METOP-B ) Distance(km) Time Diff (sec)
1 04/14/2024 17:42:41 -81.31, 136.63 106.18 04/14/2024 17:42:00 -81.31, 136.76 106.18 2.29 41
2 04/14/2024 18:32:06 81.33, -55.25 73.88 04/14/2024 18:32:39 81.33, -55.15 73.90 1.63 33
3 04/17/2024 13:16:53 -81.32,-156.60 107.11 04/17/2024 13:16:20 -81.32,-156.46 107.11 2.37 33
4 04/17/2024 14:06:19 81.33, 11.11 72.89 04/17/2024 14:07:00 81.33, 11.22 72.92 1.86 41
5 04/20/2024 08:51:05 -81.31, -90.42 108.10 04/20/2024 08:50:41 -81.31, -90.54 108.12 1.97 24
6 04/20/2024 09:40:30 81.33, 77.63 71.95 04/20/2024 09:41:20 81.33, 77.50 71.96 2.22 50
7 04/23/2024 04:25:16 -81.32, -23.70 108.99 04/23/2024 04:25:00 -81.32, -23.53 108.97 2.81 16
8 04/23/2024 05:14:42 81.32, 143.95 71.01 04/23/2024 05:15:40 81.33, 144.10 71.06 2.67 58
9 04/25/2024 23:59:27 -81.33, 42.82 109.88 04/25/2024 23:59:20 -81.33, 43.01 109.86 3.23 7



Historial Predications of SNOs between LANDSAT-8 and METOP-B
